Flag for Egypt Weather past 2 weeks in Port Said, Egypt

Now
61 °F

Clear.


Feels Like: 61 °F
Forecast: 61 / 67 °F
Wind: 13 mph from West

Location: Port Said Airport

Current Time: Mar 31, 2015 at 4:22:50 AM

Latest Report: Mar 31, 2015 at 3:00 AM


Visibility: 10 mi

Pressure: 30.01 "Hg

Humidity: 88%

Dew point: 57 °F

Location of Port SaidLocation

Historic Weather in Port Said — Graph

°F

Port Said temperature yesterday

Maximum temperature yesterday: 70 °F (at 11:00 AM)
Minimum temperature yesterday: 61 °F (at 5:00 AM)
Average temperature yesterday: 65 °F

Past Weeks' High & Low Weather Summary

 TemperatureHumidityPressure
High77 °F (Mar 28, 1:00 PM)94% (Mar 25, 3:00 AM)30.18 "Hg (Mar 25, 3:00 AM)
Low54 °F (Mar 22, 7:00 AM)21% (Mar 20, 3:00 AM)29.62 "Hg (Mar 28, 2:00 AM)
Average63 °F73%30.01 "Hg
* Reported Mar 16 3:00 AM — Mar 31 3:00 AM, Port Said, Weather by CustomWeather, © 2015

Note: Actual official high and low records may vary slightly from our data, if they occured in-between our weather recording intervals... More about our weather records

Advertising

Port Said weather history for previous 24 hours

 ConditionsComfort  
Time TempWeatherWind HumidityBarometerVisibility
3:00 AM
Tue, Mar 31
61 °FClear.13 mph88%30.01 "Hg10 mi
2:00 AM61 °FClear.14 mph88%30.01 "Hg10 mi
1:00 AM63 °FClear.10 mph77%30.01 "Hg10 mi
12:00 AM63 °FClear.8 mph77%30.01 "Hg10 mi
11:00 PM
Mon, Mar 30
63 °FClear.8 mph83%30.01 "Hg10 mi
10:00 PM63 °FPassing clouds.16 mph83%30.04 "HgN/A
9:00 PM63 °FPassing clouds.15 mph83%30.01 "HgN/A
8:00 PM64 °FPassing clouds.20 mph78%30.01 "HgN/A
7:00 PM64 °FPassing clouds.20 mph83%30.01 "HgN/A
6:00 PM66 °FScattered clouds.15 mph73%29.98 "HgN/A
5:00 PM68 °FPassing clouds.16 mph69%29.98 "HgN/A
4:00 PM68 °FPassing clouds.17 mph64%29.98 "HgN/A
3:00 PM68 °FScattered clouds.15 mph64%29.98 "HgN/A
2:00 PM68 °FScattered clouds.13 mph69%29.98 "HgN/A
1:00 PM70 °FScattered clouds.7 mph60%29.98 "HgN/A
12:00 PM70 °FScattered clouds.7 mph60%30.01 "HgN/A
11:00 AM70 °FScattered clouds.6 mph60%30.01 "HgN/A
10:00 AM68 °FPassing clouds.10 mph64%30.01 "HgN/A
9:00 AM66 °FPassing clouds.15 mph68%30.01 "HgN/A
8:00 AM64 °FSunny.13 mph78%29.95 "Hg10 mi
7:00 AM63 °FSunny.12 mph83%29.95 "Hg10 mi
6:00 AM61 °FSunny.7 mph88%29.95 "Hg10 mi
5:00 AM61 °FClear.13 mph88%29.89 "Hg10 mi
4:00 AM63 °FClear.13 mph83%29.92 "Hg10 mi
Weather by CustomWeather, © 2015

See weather overviewHow to use our weather pages